VLG2PA LEBL-LEBB

Flight info

Callsign VLG2PA
Flight time 1h 1m
Altitude 27000
Route GRAUS M601 POSSY/N0418F290 M601 CEGAM
Aircraft A320/M-SDE3FGHIRWY/LB1

Departure

Time 2026-05-05 16:03
Airport Josep Tarradellas Barcelona-El Prat Airport (LEBL)

Arrival

Time 2026-05-05 17:04
Airport Bilbao Airport (LEBB)
Time Latitude Longitude Altitude Speed Heading
2026-05-05 15:29 41.29208 2.08120 3 ft 0 kts 156°
2026-05-05 15:52 41.29227 2.08109 3 ft 4 kts 156°
2026-05-05 15:53 41.29249 2.08096 4 ft 2 kts 156°
2026-05-05 15:53 41.29269 2.08080 5 ft 4 kts 126°
2026-05-05 15:53 41.29276 2.08050 4 ft 4 kts 69°
2026-05-05 15:53 41.29267 2.08022 5 ft 1 kts 66°
2026-05-05 15:54 41.29266 2.08021 5 ft 0 kts 66°
2026-05-05 15:58 41.29267 2.08023 5 ft 3 kts 66°
2026-05-05 15:58 41.29318 2.08173 3 ft 25 kts 66°
2026-05-05 15:58 41.29364 2.08375 3 ft 17 kts 115°
2026-05-05 15:59 41.29280 2.08434 3 ft 14 kts 155°
2026-05-05 15:59 41.29177 2.08499 3 ft 19 kts 154°
2026-05-05 15:59 41.29049 2.08579 6 ft 21 kts 156°
2026-05-05 15:59 41.28901 2.08663 5 ft 24 kts 152°
2026-05-05 16:00 41.28904 2.08851 3 ft 25 kts 66°
2026-05-05 16:00 41.28983 2.09088 3 ft 30 kts 67°
2026-05-05 16:00 41.29073 2.09349 3 ft 33 kts 65°
2026-05-05 16:00 41.29171 2.09642 3 ft 36 kts 65°
2026-05-05 16:01 41.29275 2.09922 3 ft 31 kts 56°
2026-05-05 16:01 41.29366 2.10173 3 ft 26 kts 77°
2026-05-05 16:01 41.29307 2.10289 3 ft 24 kts 153°
2026-05-05 16:01 41.29209 2.10301 6 ft 0 kts 243°
2026-05-05 16:02 41.29201 2.10279 7 ft 17 kts 243°
2026-05-05 16:02 41.29111 2.10030 7 ft 71 kts 245°
2026-05-05 16:02 41.28810 2.09158 5 ft 134 kts 245°
2026-05-05 16:02 41.28350 2.07883 270 ft 159 kts 243°
2026-05-05 16:03 41.27822 2.06700 969 ft 155 kts 223°
2026-05-05 16:03 41.26882 2.06070 1711 ft 154 kts 191°
2026-05-05 16:03 41.25800 2.05806 2250 ft 167 kts 193°
2026-05-05 16:03 41.24590 2.05474 2575 ft 189 kts 194°
2026-05-05 16:04 41.23235 2.05091 2895 ft 209 kts 194°
2026-05-05 16:04 41.21782 2.04682 3453 ft 217 kts 194°
2026-05-05 16:04 41.20298 2.04267 4270 ft 218 kts 194°
2026-05-05 16:04 41.18885 2.03572 5091 ft 218 kts 215°
2026-05-05 16:05 41.17820 2.02201 5728 ft 227 kts 233°
2026-05-05 16:05 41.16850 2.00521 6521 ft 231 kts 233°
2026-05-05 16:05 41.15864 1.98826 7375 ft 233 kts 233°
2026-05-05 16:05 41.14867 1.97118 8222 ft 235 kts 233°
2026-05-05 16:06 41.13866 1.95392 9095 ft 237 kts 236°
2026-05-05 16:06 41.13123 1.93463 9841 ft 244 kts 252°
2026-05-05 16:06 41.12623 1.91274 10520 ft 251 kts 252°
2026-05-05 16:06 41.12115 1.89049 11289 ft 254 kts 252°
2026-05-05 16:07 41.11650 1.86780 12078 ft 257 kts 259°
2026-05-05 16:07 41.11617 1.84383 12793 ft 268 kts 274°
2026-05-05 16:07 41.12146 1.81889 13040 ft 296 kts 288°
2026-05-05 16:07 41.12937 1.79253 13253 ft 319 kts 289°
2026-05-05 16:08 41.14110 1.76636 13628 ft 341 kts 306°
2026-05-05 16:08 41.15892 1.74488 14210 ft 354 kts 323°
2026-05-05 16:08 41.18041 1.72830 14868 ft 359 kts 326°
2026-05-05 16:08 41.20218 1.71188 15551 ft 361 kts 324°
2026-05-05 16:09 41.22226 1.69209 16226 ft 358 kts 313°
2026-05-05 16:09 41.24086 1.66983 16921 ft 361 kts 313°
2026-05-05 16:09 41.25959 1.64737 17605 ft 364 kts 313°
2026-05-05 16:09 41.27846 1.62476 18259 ft 367 kts 313°
2026-05-05 16:10 41.29751 1.60194 18820 ft 370 kts 312°
2026-05-05 16:10 41.31673 1.57889 19381 ft 374 kts 312°
2026-05-05 16:10 41.33605 1.55566 19938 ft 376 kts 311°
2026-05-05 16:10 41.35563 1.53226 20500 ft 379 kts 312°
2026-05-05 16:11 41.37557 1.50903 21052 ft 383 kts 312°
2026-05-05 16:11 41.43705 1.43888 22675 ft 392 kts 312°
2026-05-05 16:12 41.45778 1.41510 23179 ft 395 kts 311°
2026-05-05 16:12 41.49418 1.36171 24065 ft 384 kts 294°
2026-05-05 16:13 41.51652 1.26342 25333 ft 368 kts 268°
2026-05-05 16:13 41.51859 1.22933 25764 ft 370 kts 268°
2026-05-05 16:13 41.52068 1.19511 26199 ft 371 kts 268°
2026-05-05 16:14 41.52491 1.12612 26864 ft 374 kts 268°
2026-05-05 16:14 41.52909 1.05924 26910 ft 353 kts 268°
2026-05-05 16:15 41.53299 0.99427 26907 ft 351 kts 268°
2026-05-05 16:15 41.53678 0.92923 26914 ft 352 kts 268°
2026-05-05 16:16 41.54049 0.86403 26920 ft 353 kts 268°
2026-05-05 16:16 41.54426 0.79864 26916 ft 354 kts 268°
2026-05-05 16:17 41.54800 0.73314 26918 ft 354 kts 268°
2026-05-05 16:17 41.55154 0.70048 26913 ft 361 kts 279°
2026-05-05 16:18 41.57702 0.64152 26913 ft 386 kts 308°
2026-05-05 16:18 41.59873 0.61939 26909 ft 401 kts 323°
2026-05-05 16:18 41.64949 0.58682 26899 ft 406 kts 327°
2026-05-05 16:19 41.67503 0.57064 26905 ft 406 kts 327°
2026-05-05 16:19 41.70055 0.55446 26907 ft 406 kts 327°
2026-05-05 16:19 41.75165 0.52200 26911 ft 406 kts 328°
2026-05-05 16:20 41.80273 0.48944 26915 ft 406 kts 328°
2026-05-05 16:20 41.85374 0.45680 26914 ft 406 kts 328°
2026-05-05 16:21 41.90484 0.42415 26913 ft 406 kts 328°
2026-05-05 16:22 41.97526 0.36487 26907 ft 390 kts 307°
2026-05-05 16:22 42.00548 0.30616 26899 ft 378 kts 291°
2026-05-05 16:23 42.02896 0.24337 26897 ft 379 kts 291°
2026-05-05 16:23 42.04081 0.21172 26902 ft 379 kts 291°
2026-05-05 16:23 42.06458 0.14835 26896 ft 380 kts 291°
2026-05-05 16:24 42.07647 0.11658 26898 ft 380 kts 291°
2026-05-05 16:24 42.08832 0.08483 26900 ft 380 kts 291°
2026-05-05 16:24 42.11209 0.02101 26897 ft 381 kts 291°
2026-05-05 16:25 42.12399 -0.01092 26903 ft 382 kts 291°
2026-05-05 16:25 42.14774 -0.07494 26896 ft 382 kts 291°
2026-05-05 16:25 42.15959 -0.10695 26902 ft 382 kts 291°
2026-05-05 16:26 42.18332 -0.17113 26903 ft 382 kts 291°
2026-05-05 16:26 42.20694 -0.23539 26908 ft 383 kts 291°
2026-05-05 16:27 42.21878 -0.26751 26907 ft 383 kts 291°
2026-05-05 16:27 42.23050 -0.29928 26912 ft 383 kts 291°
2026-05-05 16:27 42.24252 -0.33185 26910 ft 383 kts 291°
2026-05-05 16:27 42.25424 -0.36367 26910 ft 384 kts 291°
2026-05-05 16:28 42.26610 -0.39592 26911 ft 383 kts 291°
2026-05-05 16:28 42.27793 -0.42818 26907 ft 384 kts 291°
2026-05-05 16:28 42.28973 -0.46047 26911 ft 384 kts 291°
2026-05-05 16:28 42.30152 -0.49283 26908 ft 384 kts 291°
2026-05-05 16:29 42.31330 -0.52518 26908 ft 384 kts 291°
2026-05-05 16:29 42.32508 -0.55758 26916 ft 384 kts 291°
2026-05-05 16:29 42.33685 -0.59000 26916 ft 384 kts 291°
2026-05-05 16:29 42.34863 -0.62246 26915 ft 384 kts 291°
2026-05-05 16:30 42.36040 -0.65484 26916 ft 384 kts 291°
2026-05-05 16:30 42.37223 -0.68724 26917 ft 384 kts 291°
2026-05-05 16:30 42.38408 -0.71970 26915 ft 385 kts 291°
2026-05-05 16:30 42.39589 -0.75219 26923 ft 385 kts 291°
2026-05-05 16:31 42.40766 -0.78474 26925 ft 384 kts 291°
2026-05-05 16:31 42.41938 -0.81723 26925 ft 384 kts 291°
2026-05-05 16:31 42.43108 -0.84968 26926 ft 384 kts 291°
2026-05-05 16:31 42.44278 -0.88217 26930 ft 383 kts 291°
2026-05-05 16:32 42.45443 -0.91461 26935 ft 383 kts 291°
2026-05-05 16:32 42.46602 -0.94701 26928 ft 383 kts 291°
2026-05-05 16:32 42.47763 -0.97949 26935 ft 383 kts 291°
2026-05-05 16:32 42.48925 -1.01195 26937 ft 383 kts 291°
2026-05-05 16:33 42.50088 -1.04442 26942 ft 383 kts 292°
2026-05-05 16:33 42.51252 -1.07690 26942 ft 383 kts 292°
2026-05-05 16:33 42.52402 -1.10895 26947 ft 383 kts 292°
2026-05-05 16:33 42.53563 -1.14137 26951 ft 382 kts 292°
2026-05-05 16:34 42.54719 -1.17375 26954 ft 382 kts 292°
2026-05-05 16:34 42.55877 -1.20628 26949 ft 382 kts 292°
2026-05-05 16:34 42.57027 -1.23870 26953 ft 381 kts 292°
2026-05-05 16:34 42.58177 -1.27107 26959 ft 381 kts 292°
2026-05-05 16:35 42.59327 -1.30343 26967 ft 381 kts 292°
2026-05-05 16:35 42.60477 -1.33582 26966 ft 381 kts 292°
2026-05-05 16:35 42.61627 -1.36826 26974 ft 381 kts 292°
2026-05-05 16:35 42.62775 -1.40065 26977 ft 381 kts 292°
2026-05-05 16:36 42.63934 -1.43341 26995 ft 384 kts 292°
2026-05-05 16:36 42.65057 -1.46517 26856 ft 372 kts 292°
2026-05-05 16:36 42.66165 -1.49653 26480 ft 366 kts 292°
2026-05-05 16:36 42.67260 -1.52759 26018 ft 363 kts 292°
2026-05-05 16:37 42.68346 -1.55841 25548 ft 360 kts 292°
2026-05-05 16:37 42.69422 -1.58895 25094 ft 357 kts 292°
2026-05-05 16:37 42.70489 -1.61931 24644 ft 354 kts 292°
2026-05-05 16:37 42.71545 -1.64948 24207 ft 352 kts 292°
2026-05-05 16:38 42.72592 -1.67945 23773 ft 349 kts 292°
2026-05-05 16:38 42.73695 -1.70878 23308 ft 348 kts 298°
2026-05-05 16:38 42.74996 -1.73648 22821 ft 347 kts 300°
2026-05-05 16:38 42.76295 -1.76394 22360 ft 344 kts 300°
2026-05-05 16:39 42.77583 -1.79125 21914 ft 341 kts 300°
2026-05-05 16:39 42.78858 -1.81835 21490 ft 339 kts 299°
2026-05-05 16:39 42.80121 -1.84526 21062 ft 336 kts 299°
2026-05-05 16:39 42.81356 -1.87163 20663 ft 334 kts 299°
2026-05-05 16:40 42.82597 -1.89817 20243 ft 331 kts 299°
2026-05-05 16:40 42.83833 -1.92458 19830 ft 329 kts 300°
2026-05-05 16:40 42.85061 -1.95079 19411 ft 327 kts 300°
2026-05-05 16:40 42.86282 -1.97683 19034 ft 325 kts 300°
2026-05-05 16:41 42.87497 -2.00274 18648 ft 323 kts 300°
2026-05-05 16:41 42.88704 -2.02855 18277 ft 322 kts 300°
2026-05-05 16:41 42.89901 -2.05414 17860 ft 320 kts 300°
2026-05-05 16:41 42.91094 -2.07967 17450 ft 318 kts 300°
2026-05-05 16:42 42.92278 -2.10509 17057 ft 316 kts 300°
2026-05-05 16:42 42.93452 -2.13031 16682 ft 315 kts 300°
2026-05-05 16:42 42.94623 -2.15547 16309 ft 313 kts 300°
2026-05-05 16:42 42.95788 -2.18053 15952 ft 312 kts 300°
2026-05-05 16:43 42.96947 -2.20546 15598 ft 310 kts 300°
2026-05-05 16:43 42.98108 -2.23027 15236 ft 309 kts 302°
2026-05-05 16:43 42.99486 -2.25274 14903 ft 309 kts 310°
2026-05-05 16:43 43.00947 -2.27427 14564 ft 308 kts 310°
2026-05-05 16:44 43.02398 -2.29570 14217 ft 306 kts 310°
2026-05-05 16:44 43.03821 -2.31676 13924 ft 304 kts 310°
2026-05-05 16:44 43.05255 -2.33749 13733 ft 298 kts 311°
2026-05-05 16:44 43.06694 -2.35773 13413 ft 295 kts 312°
2026-05-05 16:45 43.08127 -2.37771 13076 ft 293 kts 312°
2026-05-05 16:45 43.09550 -2.39750 12794 ft 290 kts 312°
2026-05-05 16:45 43.10944 -2.41687 12650 ft 281 kts 312°
2026-05-05 16:45 43.12288 -2.43580 12526 ft 273 kts 308°
2026-05-05 16:46 43.13355 -2.45667 12334 ft 265 kts 297°
2026-05-05 16:46 43.14184 -2.47903 12037 ft 263 kts 294°
2026-05-05 16:46 43.14991 -2.50145 11720 ft 262 kts 295°
2026-05-05 16:46 43.15812 -2.52364 11429 ft 260 kts 295°
2026-05-05 16:47 43.16633 -2.54566 11127 ft 259 kts 295°
2026-05-05 16:47 43.17449 -2.56761 10838 ft 258 kts 295°
2026-05-05 16:47 43.18259 -2.58943 10537 ft 257 kts 295°
2026-05-05 16:47 43.19075 -2.61142 10021 ft 264 kts 296°
2026-05-05 16:48 43.19908 -2.63390 9585 ft 263 kts 296°
2026-05-05 16:48 43.20707 -2.65544 9445 ft 244 kts 296°
2026-05-05 16:48 43.21452 -2.67557 9201 ft 231 kts 296°
2026-05-05 16:48 43.22170 -2.69501 8843 ft 225 kts 296°
2026-05-05 16:49 43.22861 -2.71371 8502 ft 220 kts 296°
2026-05-05 16:49 43.23576 -2.73307 7646 ft 236 kts 297°
2026-05-05 16:49 43.24318 -2.75318 7088 ft 228 kts 297°
2026-05-05 16:49 43.24993 -2.77148 6918 ft 204 kts 297°
2026-05-05 16:50 43.25621 -2.78852 6521 ft 198 kts 297°
2026-05-05 16:50 43.26239 -2.80528 6076 ft 196 kts 298°
2026-05-05 16:50 43.26848 -2.82184 5629 ft 193 kts 298°
2026-05-05 16:50 43.27451 -2.83820 5135 ft 191 kts 298°
2026-05-05 16:51 43.28049 -2.85448 4740 ft 192 kts 298°
2026-05-05 16:51 43.28672 -2.87139 4819 ft 209 kts 298°
2026-05-05 16:51 43.29338 -2.88942 5581 ft 216 kts 298°
2026-05-05 16:51 43.30033 -2.90838 5923 ft 238 kts 295°
2026-05-05 16:52 43.30334 -2.93294 6007 ft 289 kts 264°
2026-05-05 16:52 43.29562 -2.95910 5991 ft 297 kts 233°
2026-05-05 16:52 43.27958 -2.97506 6002 ft 280 kts 199°
2026-05-05 16:52 43.26712 -2.97745 6002 ft 270 kts 175°
2026-05-05 16:53 43.24644 -2.96298 6013 ft 247 kts 125°
2026-05-05 16:53 43.23907 -2.94264 6008 ft 236 kts 103°
2026-05-05 16:53 43.23536 -2.92130 6000 ft 224 kts 102°
2026-05-05 16:53 43.23184 -2.90101 6002 ft 215 kts 102°
2026-05-05 16:54 43.22840 -2.88121 6002 ft 213 kts 101°
2026-05-05 16:54 43.22502 -2.86159 6034 ft 206 kts 101°
2026-05-05 16:54 43.22164 -2.84266 6021 ft 204 kts 106°
2026-05-05 16:54 43.21454 -2.82593 6020 ft 205 kts 127°
2026-05-05 16:55 43.20553 -2.81085 6004 ft 204 kts 129°
2026-05-05 16:55 43.19632 -2.79605 6024 ft 204 kts 130°
2026-05-05 16:55 43.18705 -2.78128 6011 ft 204 kts 130°
2026-05-05 16:55 43.17786 -2.76672 6019 ft 205 kts 130°
2026-05-05 16:56 43.16853 -2.75197 6012 ft 205 kts 130°
2026-05-05 16:56 43.15918 -2.73719 5998 ft 205 kts 130°
2026-05-05 16:56 43.14983 -2.72242 6016 ft 205 kts 130°
2026-05-05 16:56 43.14050 -2.70760 6009 ft 206 kts 130°
2026-05-05 16:57 43.13120 -2.69272 5999 ft 205 kts 127°
2026-05-05 16:57 43.12469 -2.67557 5996 ft 204 kts 107°
2026-05-05 16:57 43.12290 -2.66308 5999 ft 201 kts 88°
2026-05-05 16:57 43.12595 -2.64480 6007 ft 197 kts 62°
2026-05-05 16:58 43.13430 -2.63052 6005 ft 192 kts 39°
2026-05-05 16:58 43.14465 -2.61896 5997 ft 191 kts 28°
2026-05-05 16:58 43.15724 -2.61472 6007 ft 187 kts 360°
2026-05-05 16:58 43.17022 -2.61395 5994 ft 189 kts 12°
2026-05-05 16:59 43.18671 -2.60633 6006 ft 188 kts
2026-05-05 16:59 43.19529 -2.60823 5997 ft 185 kts 336°
2026-05-05 16:59 43.20473 -2.61952 5702 ft 183 kts 305°
2026-05-05 16:59 43.21067 -2.63512 5315 ft 186 kts 295°
2026-05-05 17:00 43.21595 -2.65124 4929 ft 185 kts 296°
2026-05-05 17:00 43.22124 -2.66720 4552 ft 183 kts 296°
2026-05-05 17:00 43.22649 -2.68314 4163 ft 183 kts 296°
2026-05-05 17:00 43.23163 -2.69899 4006 ft 182 kts 296°
2026-05-05 17:01 43.23672 -2.71468 4007 ft 183 kts 296°
2026-05-05 17:01 43.24193 -2.73057 4009 ft 183 kts 296°
2026-05-05 17:01 43.24714 -2.74655 4013 ft 185 kts 295°
2026-05-05 17:01 43.25227 -2.76327 3988 ft 189 kts 291°
2026-05-05 17:02 43.25574 -2.78025 3807 ft 181 kts 285°
2026-05-05 17:02 43.25932 -2.79612 3575 ft 168 kts 289°
2026-05-05 17:02 43.26326 -2.81139 3009 ft 173 kts 292°
2026-05-05 17:02 43.26814 -2.82653 2395 ft 173 kts 298°
2026-05-05 17:03 43.27405 -2.84102 1853 ft 175 kts 301°
2026-05-05 17:03 43.28077 -2.85507 1285 ft 176 kts 302°
2026-05-05 17:03 43.28620 -2.86916 951 ft 157 kts 294°
2026-05-05 17:03 43.29077 -2.88192 659 ft 144 kts 295°
2026-05-05 17:04 43.29512 -2.89413 317 ft 138 kts 295°
2026-05-05 17:04 43.29927 -2.90537 143 ft 123 kts 294°
2026-05-05 17:04 43.30219 -2.91357 132 ft 55 kts 298°
2026-05-05 17:04 43.30369 -2.91767 132 ft 40 kts 300°
2026-05-05 17:05 43.30533 -2.91992 127 ft 30 kts 323°
2026-05-05 17:05 43.30624 -2.91984 128 ft 11 kts 78°
2026-05-05 17:05 43.30603 -2.91891 126 ft 10 kts 116°
2026-05-05 17:05 43.30568 -2.91794 130 ft 18 kts 116°
2026-05-05 17:06 43.30496 -2.91597 126 ft 25 kts 117°
2026-05-05 17:06 43.30413 -2.91378 129 ft 26 kts 117°
2026-05-05 17:06 43.30329 -2.91151 130 ft 25 kts 116°
2026-05-05 17:06 43.30365 -2.91002 129 ft 11 kts 20°
2026-05-05 17:07 43.30402 -2.90932 129 ft 9 kts 79°
2026-05-05 17:07 43.30408 -2.90852 131 ft 8 kts 88°
2026-05-05 17:07 43.30401 -2.90783 132 ft 7 kts 111°
2026-05-05 17:07 43.30396 -2.90731 132 ft 5 kts 64°
2026-05-05 17:08 43.30418 -2.90707 132 ft 4 kts 30°
2026-05-05 17:08 43.30439 -2.90691 132 ft 3 kts 27°
2026-05-05 17:08 43.30446 -2.90687 132 ft 0 kts 26°